Hovedside
METAR-TAF:

METAR-TAF

Lufthavner :

Hasvik, Norge

Hasvik lufthavn

breddegrad: 70-29N, lengdegrad: 022-09E, høyde over havet: 10 m

Gjeldene værobservasjon

Denne rapporten ble laget for 41 minutter siden, klokken 13:50 UTC
Vind 14 kt fra Sør-sørøst
Temperatur -2°C
Luftfuktighet 59%
Trykk 1023 hPa
Sikt 10 km eller mer
Få skyer i en høyde av 3000 ft

METAR: ENHK 221350Z 15014KT 9999 FEW030 M02/M09 Q1023

Tid: 15:31 (14:31 UTC)


TAF: fraværende

Værobservasjoner og værvarsel for over 4000 flyplasser (METAR- og TAF-rapporter).

Tilgjengelige stasjoner er representert av de røde og gule prikkene på kartet.

Hold musepekeren over prikken for å se navnet på stasjonen.

Klikk så for å se værobservasjoner og -varsler.

For å forandre kartet kan du klikke på den grønne knappen med svart kryss for å zoome inn, på den grønne knappen med strek for å zoome ut, eller på de grønne pilene for å se tilstøtende kart.


METAR-TAF: